KB5SJ Weather Reports


time (UTC)temp
F
wind
direction
speed
knots
gust
knots
rain 1hr
in
rain 24hr
in
rain mn
in
humidity
%
barometer
mb
20260509223516 90 45 0.9 2.6 0.00 0.07 0.00 72 1006.9
20260509222516 90 0.0 1.7 0.00 0.07 0.00 72 1006.7
20260509221536 90 45 0.9 1.7 0.00 0.07 0.00 71 1006.8
20260509220516 89 68 0.9 2.6 0.00 0.07 0.00 75 1006.9
20260509215536 88 68 1.7 2.6 0.00 0.07 0.00 76 1006.8
20260509214536 88 0.0 0.9 0.00 0.07 0.00 79 1006.9
20260509213516 88 0.0 0.9 0.00 0.07 0.00 75 1006.8
20260509212516 88 203 0.9 1.7 0.00 0.07 0.00 76 1006.8
20260509211516 87 203 0.9 1.7 0.00 0.07 0.00 76 1006.9
20260509210536 87 203 0.9 2.6 0.00 0.07 0.00 76 1007.1
20260509205516 87 68 0.9 1.7 0.00 0.07 0.00 76 1007.2
20260509204516 88 0 0.9 3.5 0.00 0.07 0.00 79 1007.3
20260509203516 88 338 1.7 2.6 0.00 0.07 0.00 79 1007.5
20260509202516 87 23 0.9 2.6 0.00 0.07 0.00 79 1007.4
20260509201516 87 338 1.7 2.6 0.00 0.07 0.00 80 1007.6
20260509200516 86 0.0 0.9 0.00 0.07 0.00 82 1007.8
20260509195516 86 135 0.9 1.7 0.00 0.07 0.00 82 1007.9
20260509194516 86 225 0.9 3.5 0.00 0.07 0.00 81 1008.1
20260509193516 86 158 0.9 1.7 0.00 0.07 0.00 82 1008.1
20260509192516 86 0.0 1.7 0.00 0.07 0.00 84 1008.2
20260509191516 85 0 1.7 4.3 0.00 0.07 0.00 83 1008.4
20260509190516 85 203 0.9 2.6 0.00 0.07 0.00 84 1008.5
20260509185536 85 203 0.9 3.5 0.00 0.07 0.00 85 1008.6
20260509184516 84 0 0.9 1.7 0.00 0.07 0.00 85 1008.6
20260509183516 84 203 0.9 2.6 0.00 0.07 0.00 86 1008.8
20260509182516 84 315 0.9 3.5 0.00 0.07 0.00 86 1009.0
20260509181516 84 203 0.9 4.3 0.00 0.07 0.00 86 1009.1
20260509180516 84 225 0.9 1.7 0.00 0.07 0.00 86 1009.3
20260509175516 84 315 0.9 1.7 0.00 0.07 0.00 87 1009.3
20260509174536 83 203 0.9 2.6 0.00 0.07 0.00 89 1009.4
20260509173536 83 225 0.9 2.6 0.00 0.07 0.00 90 1009.3
20260509172516 82 270 0.9 2.6 0.00 0.07 0.00 90 1009.4
20260509171516 81 45 0.9 2.6 0.00 0.07 0.00 92 1009.3
20260509170516 80 180 0.9 2.6 0.00 0.07 0.00 93 1009.4
20260509165516 80 0.0 0.9 0.00 0.07 0.00 94 1009.4
20260509164516 80 0.0 1.7 0.00 0.07 0.00 94 1009.4
20260509163516 79 0.0 1.7 0.00 0.07 0.00 95 1009.5
20260509162556 79 0.0 0.9 0.00 0.07 0.00 96 1009.5
20260509161516 79 0.0 2.6 0.00 0.07 0.00 96 1009.7
20260509160516 79 293 0.9 2.6 0.00 0.07 0.00 96 1009.7
20260509155556 78 0.0 1.7 0.00 0.07 0.00 98 1009.8
20260509154516 78 0.0 1.7 0.00 0.07 0.00 98 1009.8
20260509153536 77 0.0 1.7 0.00 0.07 0.00 99 1009.8
20260509152536 77 0.0 1.7 0.00 0.07 0.00 99 1009.9
20260509151516 77 0.0 1.7 0.00 0.07 0.00 100 1010.0
20260509150516 76 0.0 1.7 0.00 0.07 0.00 100 1009.7
20260509145516 76 0.0 0.0 0.00 0.07 0.00 100 1009.8
20260509144516 76 0.0 0.0 0.00 0.07 0.00 100 1009.8
20260509143516 76 0.0 0.0 0.00 0.07 0.00 100 1009.6
20260509142516 76 0.0 0.0 0.00 0.07 0.00 100 1009.3
20260509141516 76 0.0 0.9 0.00 0.07 0.00 100 1009.1
20260509140516 76 0.0 1.7 0.00 0.07 0.00 100 1009.2
20260509135516 75 0.0 0.0 0.00 0.07 0.00 100 1009.4
20260509134516 76 0.0 0.0 0.00 0.07 0.00 100 1009.5
20260509133515 75 0.0 0.9 0.00 0.07 0.00 100 1009.7
20260509132516 75 0.0 2.6 0.00 0.07 0.00 100 1009.8
20260509131516 75 0.0 0.0 0.00 0.07 0.00 100 1009.7
20260509130515 75 0.0 0.9 0.00 0.07 0.00 100 1009.6
20260509125516 75 0.0 0.0 0.00 0.07 0.00 100 1009.7
20260509124516 75 0.0 0.0 0.00 0.07 0.00 100 1009.7
20260509123515 74 0.0 0.0 0.00 0.07 0.00 100 1009.8
20260509122515 74 0.0 0.0 0.00 0.07 0.00 100 1009.7
20260509121556 74 0.0 0.0 0.00 0.07 0.00 100 1009.6
20260509120515 74 0.0 0.0 0.00 0.07 0.00 100 1009.5
20260509115516 74 0.0 0.0 0.00 0.07 0.00 100 1009.3
20260509114516 74 0.0 0.0 0.00 0.07 0.00 100 1009.1
20260509113516 74 0.0 0.0 0.00 0.07 0.00 100 1008.8
20260509112515 74 0.0 0.0 0.00 0.07 0.00 100 1008.8
20260509111515 74 0.0 0.0 0.00 0.07 0.00 100 1008.9
20260509110515 74 0.0 0.0 0.00 0.07 0.00 100 1008.9
20260509105516 74 0.0 1.7 0.00 0.07 0.00 100 1009.2
20260509104515 74 0.0 0.0 0.00 0.07 0.00 100 1009.3
20260509103516 74 0.0 0.9 0.00 0.07 0.00 99 1009.5
20260509102535 74 0.0 0.9 0.00 0.07 0.00 99 1009.4
20260509101515 74 0.0 0.0 0.00 0.07 0.00 99 1008.7
20260509100515 74 0.0 0.9 0.00 0.07 0.00 99 1008.5
20260509095516 74 0.0 0.0 0.00 0.07 0.00 99 1008.6
20260509094516 74 0.0 0.0 0.00 0.07 0.00 99 1008.8
20260509093515 74 0.0 0.0 0.00 0.07 0.00 99 1008.8
20260509092515 74 0.0 0.9 0.00 0.07 0.00 99 1008.8
20260509091515 74 0.0 0.0 0.00 0.07 0.00 99 1008.8
20260509090515 74 0.0 0.9 0.00 0.07 0.00 99 1008.9
20260509085515 74 0.0 0.0 0.00 0.07 0.00 99 1008.8
20260509084515 74 0.0 0.9 0.00 0.07 0.00 99 1008.9
20260509083516 74 0.0 0.9 0.00 0.07 0.00 99 1008.9
20260509082515 74 0.0 0.0 0.00 0.07 0.00 99 1008.8
20260509081515 74 0.0 0.0 0.00 0.07 0.00 99 1008.8
20260509080516 73 0.0 0.0 0.00 0.07 0.00 99 1008.8
20260509075517 73 0.0 0.9 0.00 0.07 0.00 99 1008.9
20260509074517 73 0.0 0.9 0.00 0.07 0.00 99 1009.1
20260509073517 73 0.0 0.0 0.00 0.07 0.00 99 1009.3
20260509072517 73 0.0 0.0 0.00 0.07 0.00 99 1009.0
20260509071537 73 0.0 0.0 0.00 0.07 0.00 99 1009.1
20260509070517 73 0.0 0.0 0.00 0.07 0.00 99 1009.2
20260509065517 73 0.0 0.9 0.00 0.07 0.00 99 1009.2
20260509064517 73 0.0 0.0 0.00 0.07 0.00 99 1009.2
20260509063517 73 0.0 0.9 0.00 0.07 0.00 99 1009.4
20260509062517 73 0.0 1.7 0.00 0.07 0.00 99 1009.2
20260509061517 73 203 0.9 2.6 0.00 0.07 0.00 99 1009.2
20260509060537 73 0.0 1.7 0.00 0.07 0.00 99 1009.4
20260509055517 73 203 0.9 1.7 0.00 0.07 0.00 99 1009.6
20260509054537 73 135 0.9 2.6 0.00 0.07 0.00 99 1009.7
20260509053517 73 0.0 0.9 0.00 0.07 0.00 99 1009.8
20260509052517 73 90 0.9 2.6 0.00 0.07 0.00 99 1009.8
20260509051557 73 180 0.9 2.6 0.00 0.07 0.00 99 1009.8
20260509050517 73 203 0.9 2.6 0.00 0.07 0.00 99 1009.8
20260509045516 73 180 0.9 1.7 0.00 0.07 0.07 99 1009.8
20260509044517 73 0.0 0.9 0.00 0.07 0.07 99 1009.6
20260509043516 73 0.0 0.0 0.00 0.07 0.07 99 1009.6
20260509042537 73 0.0 0.9 0.00 0.07 0.07 99 1009.7
20260509041516 72 203 0.9 1.7 0.00 0.07 0.07 99 1009.7
20260509040516 72 0.0 1.7 0.00 0.07 0.07 98 1009.4
20260509035517 72 0.0 1.7 0.00 0.07 0.07 98 1009.6
20260509034517 72 203 0.9 1.7 0.00 0.07 0.07 98 1009.6
20260509033537 72 0.0 1.7 0.00 0.07 0.07 98 1009.4
20260509032516 72 203 0.9 4.3 0.00 0.07 0.07 98 1009.4
20260509031516 72 180 0.9 3.5 0.00 0.07 0.07 98 1009.2
20260509030517 72 0.0 1.7 0.00 0.07 0.07 98 1009.1
20260509025517 72 180 0.9 3.5 0.01 0.07 0.07 98 1009.2
20260509024517 72 203 0.9 2.6 0.01 0.07 0.07 98 1008.9
20260509023516 73 158 0.9 2.6 0.01 0.07 0.07 98 1009.0
20260509022517 73 203 0.9 3.5 0.01 0.07 0.07 98 1008.9
20260509021517 73 180 0.9 3.5 0.01 0.07 0.07 98 1008.9
20260509020517 73 0.0 1.7 0.01 0.07 0.07 98 1008.6
20260509015516 73 158 0.9 3.5 0.00 0.06 0.06 98 1008.8
20260509014517 73 0.0 0.9 0.00 0.06 0.06 98 1008.8
20260509013516 73 0.0 1.7 0.00 0.06 0.06 97 1008.6
20260509012517 73 0.0 0.0 0.00 0.06 0.06 97 1008.6
20260509011517 73 0.0 0.9 0.00 0.06 0.06 97 1008.7
20260509010617 73 0.0 1.7 0.00 0.06 0.06 97 1008.5
20260509005516 73 0.0 0.9 0.00 0.06 0.06 97 1008.5
20260509004517 73 0.0 1.7 0.00 0.06 0.06 97 1008.6
20260509003516 73 0.0 1.7 0.01 0.06 0.06 96 1008.8
20260509002516 73 0.0 0.9 0.05 0.06 0.06 96 1008.7
20260509001516 73 0.0 0.9 0.06 0.06 0.06 96 1008.5
20260509000516 74 0.0 0.9 0.06 0.06 0.06 95 1008.8
20260508235516 74 0.0 1.7 0.06 0.06 0.06 95 1008.8
20260508234516 74 0.0 0.0 0.06 0.06 0.06 95 1008.8
20260508233536 74 0.0 0.9 0.05 0.05 0.05 94 1009.1
20260508232516 75 0.0 0.9 0.01 0.01 0.01 93 1008.9
20260508231516 75 45 0.9 1.7 0.00 0.00 0.00 93 1008.9
20260508230516 75 113 0.9 1.7 0.00 0.00 0.00 93 1008.7
20260508225516 75 0.0 1.7 0.00 0.00 0.00 92 1008.7
20260508224516 76 0.0 1.7 0.00 0.00 0.00 92 1008.8